Location: Sungai Jaoh
(2.9167°N, 113.9167°E)
Time: 06:43:40
(UTC+00:00)

SL-16 R/B - Pass Details

Date: 30 November 2020
Orbit: 841 x 848 km, 71.0° (Epoch: 16 January)

Event Time Altitude Azimuth Distance (km) Brightness Sun altitude
Exits shadow 21:11:58 21° 276° (W) 1,788 3.3 -15.3°
Maximum altitude 21:13:18 23° 255° (WSW) 1,705 3.3 -15.0°
Drops below altitude 10° 21:17:43 10° 204° (SSW) 2,468 4.6 -14.0°
Sets 21:20:39 0° 189° (S) 3,405 5.5 -13.3°
